User: anonymous   Login
Location: Unspecified
(0.0000°N, 0.0000°E)
Time: 09:32:26
(UTC+00:00)
Language:

Jikiken - Orbit

View from above orbital plane
View from above orbital plane
View from above satellite
View from above satellite

Ground track
Ground track

The orbit data is extracted from the following two-line orbital elements,

1 11027U 78087A   18023.94170536 +.00951236 -22751-5 +29088-3 0  9999
2 11027 031.0497 264.6815 1656696 339.4009 014.6724 12.56654627465223
Epoch (UTC): 23 January 2018 22:36:03
Eccentricity: 0.1656696
inclination: 31.0497°
perigee height: 142 km
apogee height: 2731 km
right ascension of ascending node: 264.6815°
argument of perigee: 339.4009°
revolutions per day: 12.56654627
mean anomaly at epoch: 14.6724°
orbit number at epoch: 46522

The dashed part of the orbit path shows where the satellite is in the earth's shadow,  

DLR